User: anonymous   Login
Location: Brachbach
(49.1847°N, 9.7240°E)
Time: 19:05:46
(UTC+00:00)
Language:

Cosmos 1825 - Orbit

View from above orbital plane
View from above orbital plane
View from above satellite
View from above satellite

Ground track
Ground track

The orbit data is extracted from the following two-line orbital elements,

1 17566U 87024A   24202.12125359  .00024332  00000-0  54828-3 0  9998
2 17566  82.4931 224.7733 0004735 128.6041 231.5631 15.43115222 48057
Epoch (UTC): 20 July 2024 02:54:36
Eccentricity: 0.0004735
inclination: 82.4931°
perigee height: 434 km
apogee height: 440 km
right ascension of ascending node: 224.7733°
argument of perigee: 128.6041°
revolutions per day: 15.43115222
mean anomaly at epoch: 231.5631°
orbit number at epoch: 4805

The dashed part of the orbit path shows where the satellite is in the earth's shadow,  

DLR